EW9204 Weather Reports


Display with metric or nautical units.
time (UTC)temp
F
wind
direction
speed
MPH
gust
MPH
rain 1hr
in
rain 24hr
in
rain mn
in
humidity
%
barometer
mb
20260510204014 66 137 0.0 2.0 0.00 0.23 0.01 84 1013.3
20260510203515 66 0 0.0 3.0 0.00 0.23 0.01 82 1013.4
20260510203035 66 158 1.0 4.0 0.00 0.23 0.01 81 1013.3
20260510202515 66 193 1.0 4.0 0.00 0.23 0.01 80 1013.3
20260510202016 66 0 1.0 5.0 0.00 0.23 0.01 82 1013.2
20260510201531 66 221 1.0 6.0 0.00 0.23 0.01 82 1013.3
20260510201018 66 178 2.0 6.0 0.00 0.23 0.01 81 1013.3
20260510200516 65 26 2.0 6.0 0.00 0.23 0.01 81 1013.4
20260510200032 65 218 3.0 6.0 0.01 0.23 0.01 81 1013.3
20260510195515 65 205 1.0 7.0 0.01 0.28 0.01 83 1013.3
20260510195015 65 168 0.0 7.0 0.01 0.28 0.01 83 1013.3
20260510194530 64 170 3.0 7.0 0.01 0.28 0.01 82 1013.3
20260510194015 64 202 1.0 8.0 0.01 0.28 0.01 84 1013.3
20260510193516 64 178 2.0 8.0 0.01 0.28 0.01 83 1013.4
20260510193031 64 165 3.0 8.0 0.01 0.28 0.01 84 1013.3
20260510192514 64 265 1.0 6.0 0.01 0.28 0.01 85 1013.3
20260510192015 64 168 1.0 6.0 0.01 0.28 0.01 84 1013.6
20260510191532 65 126 3.0 6.0 0.01 0.28 0.01 83 1013.7
20260510191013 65 9 2.0 7.0 0.01 0.28 0.01 83 1013.7
20260510190515 66 205 2.0 7.0 0.01 0.28 0.01 80 1013.6
20260510190037 66 70 1.0 5.0 0.00 0.27 0.00 78 1013.9
20260510185513 67 9 1.0 10.0 0.00 0.58 0.00 77 1013.8
20260510185013 67 153 3.0 10.0 0.00 0.58 0.00 76 1013.9
20260510184534 67 223 0.0 9.0 0.00 0.58 0.00 74 1013.9
20260510184016 67 319 2.0 9.0 0.00 0.58 0.00 73 1013.9
20260510183512 67 167 3.0 9.0 0.00 0.58 0.00 73 1013.9
20260510183037 68 186 1.0 4.0 0.00 0.58 0.00 73 1013.9
20260510182515 67 9 1.0 5.0 0.00 0.58 0.00 73 1013.9
20260510182016 67 236 2.0 6.0 0.00 0.58 0.00 76 1013.9
20260510181543 67 187 2.0 6.0 0.00 0.58 0.00 75 1013.9
20260510181015 66 209 1.0 4.0 0.00 0.58 0.00 78 1013.9
20260510180515 65 232 1.0 5.0 0.00 0.58 0.00 77 1013.9
20260510180033 65 61 1.0 8.0 0.00 0.58 0.00 78 1013.9
20260510175513 65 205 2.0 8.0 0.00 0.58 0.00 77 1013.9
20260510175013 65 175 3.0 8.0 0.00 0.58 0.00 76 1013.9
20260510174535 65 207 2.0 8.0 0.00 0.58 0.00 80 1013.9
20260510174019 65 196 4.0 8.0 0.00 0.58 0.00 79 1013.9
20260510173516 64 166 2.0 7.0 0.00 0.58 0.00 80 1013.8
20260510173031 64 202 3.0 7.0 0.00 0.58 0.00 83 1013.8
20260510172517 63 245 3.0 7.0 0.00 0.58 0.00 85 1014.0
20260510172016 62 182 3.0 9.0 0.00 0.58 0.00 83 1013.9
20260510171530 62 282 4.0 9.0 0.00 0.58 0.00 85 1013.8
20260510171015 62 178 3.0 8.0 0.00 0.58 0.00 86 1013.8
20260510170516 61 265 2.0 6.0 0.00 0.58 0.00 87 1013.9
20260510170030 60 160 2.0 6.0 0.00 0.58 0.00 86 1013.9
20260510165514 60 221 2.0 8.0 0.00 0.58 0.00 88 1014.1
20260510165017 60 223 2.0 8.0 0.00 0.58 0.00 88 1014.2
20260510164537 60 303 3.0 8.0 0.00 0.58 0.00 90 1014.1
20260510164013 59 153 2.0 6.0 0.00 0.58 0.00 91 1014.1
20260510163516 58 108 1.0 6.0 0.00 0.58 0.00 92 1014.0
20260510163030 57 137 1.0 6.0 0.00 0.58 0.00 93 1014.1
20260510162515 57 113 1.0 5.0 0.00 0.58 0.00 93 1014.3
20260510162013 57 219 1.0 6.0 0.00 0.58 0.00 94 1014.2
20260510161529 56 38 1.0 6.0 0.00 0.58 0.00 94 1014.1
20260510161013 56 115 2.0 6.0 0.00 0.58 0.00 94 1014.2
20260510160514 56 178 1.0 6.0 0.00 0.58 0.00 95 1014.2
20260510160032 55 200 2.0 6.0 0.00 0.58 0.00 95 1014.2
20260510155515 55 0 2.0 5.0 0.00 0.58 0.00 95 1014.3
20260510155014 55 162 2.0 9.0 0.00 0.58 0.00 95 1014.4
20260510154534 55 221 3.0 9.0 0.00 0.58 0.00 95 1014.4
20260510154016 55 234 2.0 7.0 0.00 0.58 0.00 95 1014.4
20260510153515 54 208 3.0 7.0 0.00 0.58 0.00 95 1014.3
20260510153040 55 203 3.0 6.0 0.00 0.58 0.00 95 1014.2
20260510152519 54 217 1.0 6.0 0.00 0.58 0.00 96 1014.4
20260510152014 54 190 1.0 5.0 0.00 0.58 0.00 96 1014.4
20260510151534 54 243 2.0 6.0 0.00 0.58 0.00 96 1014.5
20260510151013 54 210 1.0 6.0 0.00 0.58 0.00 96 1014.4
20260510150513 54 156 1.0 7.0 0.00 0.58 0.00 96 1014.5
20260510150033 54 168 3.0 7.0 0.00 0.58 0.00 96 1014.5
20260510145518 54 195 2.0 4.0 0.00 0.58 0.00 96 1014.4
20260510145015 54 93 1.0 5.0 0.00 0.58 0.00 96 1014.4
20260510144543 53 205 1.0 5.0 0.00 0.58 0.00 96 1014.4
20260510144015 53 162 2.0 5.0 0.00 0.58 0.00 96 1014.3
20260510143516 53 213 1.0 4.0 0.00 0.58 0.00 96 1014.3
20260510143034 53 265 0.0 4.0 0.00 0.58 0.00 96 1014.2
20260510142517 53 254 0.0 5.0 0.00 0.58 0.00 96 1014.1
20260510142021 53 188 1.0 5.0 0.00 0.58 0.00 96 1014.0
20260510141535 53 0 1.0 4.0 0.00 0.58 0.00 96 1014.0
20260510141019 53 219 1.0 6.0 0.00 0.58 0.00 96 1013.8
20260510140516 52 234 2.0 6.0 0.00 0.58 0.00 96 1013.7
20260510140035 52 208 1.0 4.0 0.00 0.58 0.00 96 1013.8
20260510135517 52 191 2.0 5.0 0.00 0.58 0.00 96 1013.9
20260510135018 52 0 1.0 5.0 0.00 0.58 0.00 96 1013.9
20260510134544 52 144 2.0 6.0 0.00 0.58 0.00 96 1013.9
20260510134015 52 212 3.0 6.0 0.00 0.58 0.00 96 1013.9
20260510133517 52 212 1.0 5.0 0.00 0.58 0.00 96 1013.9
20260510133034 52 221 2.0 5.0 0.00 0.58 0.00 96 1013.9
20260510132518 52 196 1.0 5.0 0.00 0.58 0.00 96 1013.8
20260510132017 52 22 1.0 5.0 0.00 0.58 0.00 96 1013.7
20260510131534 52 79 1.0 3.0 0.00 0.58 0.00 96 1013.6
20260510131016 52 0 1.0 3.0 0.00 0.58 0.00 96 1013.6
20260510130516 52 162 1.0 3.0 0.00 0.58 0.00 96 1013.6
20260510130033 52 34 0.0 3.0 0.00 0.58 0.00 96 1013.6
20260510125515 52 265 1.0 4.0 0.00 0.58 0.00 96 1013.6
20260510125019 51 119 1.0 4.0 0.00 0.58 0.00 96 1013.6
20260510124539 51 80 1.0 3.0 0.00 0.58 0.00 96 1013.5
20260510124018 51 334 1.0 4.0 0.00 0.58 0.00 96 1013.4
20260510123518 51 178 1.0 4.0 0.00 0.58 0.00 96 1013.3
20260510123035 51 196 1.0 4.0 0.00 0.58 0.00 96 1013.2
20260510122520 51 221 1.0 4.0 0.00 0.58 0.00 96 1013.1
20260510122021 51 22 1.0 3.0 0.00 0.58 0.00 96 1013.1
20260510121534 51 153 0.0 4.0 0.00 0.58 0.00 96 1013.0
20260510121024 51 93 0.0 4.0 0.00 0.58 0.00 96 1013.0
20260510120522 51 162 1.0 3.0 0.00 0.58 0.00 96 1012.9
20260510120036 51 171 1.0 3.0 0.00 0.58 0.00 96 1012.9
20260510115519 51 153 1.0 5.0 0.00 0.58 0.00 96 1012.9
20260510115018 51 238 1.0 6.0 0.00 0.58 0.00 96 1013.0
20260510114534 51 193 2.0 6.0 0.00 0.58 0.00 96 1012.8
20260510114016 51 190 2.0 4.0 0.00 0.58 0.00 96 1012.7
20260510113518 51 137 1.0 3.0 0.00 0.58 0.00 96 1012.5
20260510113030 50 301 1.0 3.0 0.00 0.58 0.00 96 1012.4
20260510112527 50 78 1.0 3.0 0.00 0.58 0.00 96 1012.4
20260510112016 50 51 0.0 4.0 0.00 0.58 0.00 96 1012.3
20260510111537 50 153 1.0 4.0 0.00 0.58 0.00 96 1012.3
20260510111015 50 63 1.0 5.0 0.00 0.58 0.00 96 1012.3
20260510110519 50 9 1.0 5.0 0.00 0.58 0.00 96 1012.4
20260510110037 50 0 1.0 6.0 0.00 0.58 0.00 96 1012.3
20260510105516 50 140 2.0 6.0 0.00 0.58 0.00 96 1012.3
20260510105016 50 93 1.0 5.0 0.00 0.58 0.00 96 1012.4
20260510104530 50 72 1.0 5.0 0.00 0.58 0.00 96 1012.3
20260510104013 50 162 1.0 4.0 0.00 0.58 0.00 96 1012.4
20260510103513 50 111 1.0 3.0 0.00 0.58 0.00 96 1012.4
20260510103037 50 149 1.0 4.0 0.00 0.58 0.00 96 1012.4
20260510102517 50 0 0.0 4.0 0.00 0.58 0.00 96 1012.5
20260510102014 50 93 1.0 4.0 0.00 0.58 0.00 96 1012.3
20260510101531 50 19 1.0 5.0 0.00 0.58 0.00 96 1012.2
20260510101015 50 162 0.0 5.0 0.00 0.58 0.00 96 1012.2
20260510100513 50 193 1.0 5.0 0.00 0.58 0.00 96 1012.3
20260510100034 50 9 0.0 4.0 0.00 0.58 0.00 96 1012.3
20260510095514 50 137 1.0 4.0 0.00 0.58 0.00 95 1012.3
20260510095015 50 93 0.0 3.0 0.00 0.58 0.00 95 1012.3
20260510094536 50 0 1.0 3.0 0.00 0.58 0.00 95 1012.3
20260510094016 50 108 0.0 3.0 0.00 0.58 0.00 95 1012.3
20260510093515 50 93 0.0 2.0 0.00 0.58 0.00 96 1012.4
20260510093032 50 115 0.0 3.0 0.00 0.58 0.00 96 1012.4
20260510092513 50 137 1.0 3.0 0.00 0.58 0.00 96 1012.6
20260510092016 50 178 1.0 2.0 0.00 0.58 0.00 96 1012.7
20260510091531 50 93 0.0 2.0 0.00 0.58 0.00 96 1012.7
20260510091015 50 105 0.0 2.0 0.00 0.58 0.00 96 1012.5
20260510090515 50 9 0.0 4.0 0.00 0.58 0.00 96 1012.6
20260510090035 50 61 0.0 4.0 0.00 0.58 0.00 96 1012.6
20260510085515 50 105 1.0 4.0 0.00 0.58 0.00 96 1012.5
20260510085013 50 67 0.0 3.0 0.00 0.58 0.00 96 1012.7
20260510084534 50 0 1.0 4.0 0.00 0.58 0.00 96 1012.7
20260510084016 50 0 1.0 4.0 0.00 0.58 0.00 96 1012.7
20260510083518 50 113 0.0 5.0 0.00 0.58 0.00 96 1012.6
20260510083038 50 16 1.0 5.0 0.00 0.58 0.00 95 1012.7
20260510082517 50 93 2.0 7.0 0.00 0.58 0.00 95 1012.6
20260510082022 50 19 1.0 7.0 0.00 0.58 0.00 95 1012.5
20260510081531 50 329 2.0 7.0 0.00 0.58 0.00 95 1012.6
20260510081014 50 321 1.0 4.0 0.00 0.58 0.00 95 1012.5
20260510080519 50 309 2.0 4.0 0.00 0.58 0.00 95 1012.6
20260510080029 50 309 1.0 3.0 0.00 0.58 0.00 95 1011.9
20260510075520 50 123 0.0 3.0 0.00 0.58 0.00 95 1011.7
20260510075015 50 0 0.0 2.0 0.00 0.58 0.00 95 1011.6
20260510074532 50 0 0.0 2.0 0.00 0.58 0.00 95 1011.6
20260510074014 50 303 0.0 4.0 0.00 0.58 0.00 95 1011.7
20260510073518 50 196 1.0 4.0 0.00 0.58 0.00 95 1011.7
20260510073035 50 146 0.0 2.0 0.00 0.58 0.00 95 1011.7
20260510072514 50 0 0.0 3.0 0.00 0.58 0.00 95 1011.8
20260510072016 50 265 1.0 3.0 0.00 0.58 0.00 95 1011.8
20260510071543 50 0 0.0 2.0 0.00 0.58 0.00 95 1011.9
20260510071016 50 61 0.0 2.0 0.00 0.58 0.00 95 1011.8
20260510070514 50 291 0.0 2.0 0.00 0.58 0.00 95 1011.8
20260510070031 50 0 0.0 2.0 0.00 0.58 0.00 95 1011.7
20260510065516 50 298 0.0 3.0 0.00 0.58 0.00 95 1011.8
20260510065015 50 93 0.0 3.0 0.00 0.58 0.00 95 1011.8
20260510064530 50 309 1.0 2.0 0.00 0.58 0.00 95 1011.9
20260510064015 50 301 1.0 2.0 0.00 0.58 0.00 95 1011.9
20260510063513 50 0 0.0 3.0 0.00 0.58 0.00 95 1011.9
20260510063030 50 0 1.0 3.0 0.00 0.58 0.00 95 1011.9
20260510062515 50 316 1.0 3.0 0.00 0.58 0.00 95 1011.9
20260510062015 50 0 0.0 2.0 0.00 0.58 0.00 95 1011.8
20260510061530 50 0 0.0 3.0 0.00 0.58 0.00 95 1011.7
20260510061016 50 0 1.0 3.0 0.00 0.58 0.00 95 1011.6
20260510060516 50 282 0.0 4.0 0.00 0.58 0.00 95 1011.6
20260510060038 50 221 1.0 4.0 0.00 0.58 0.00 95 1011.6
20260510055515 50 0 0.0 3.0 0.00 0.60 0.00 95 1011.6
20260510055016 50 265 1.0 3.0 0.00 0.60 0.00 95 1011.6
20260510054531 50 80 1.0 3.0 0.00 0.60 0.00 95 1011.6
20260510054017 50 142 0.0 2.0 0.00 0.60 0.00 95 1011.6
20260510053515 50 265 0.0 2.0 0.00 0.60 0.00 95 1011.7
20260510053030 50 93 0.0 2.0 0.00 0.60 0.00 95 1011.7
20260510052516 50 0 1.0 3.0 0.00 0.60 0.00 95 1011.7
20260510052019 50 0 1.0 3.0 0.00 0.60 0.00 95 1011.6
20260510051541 50 93 1.0 3.0 0.00 0.60 0.00 95 1011.6
20260510051016 50 0 0.0 2.0 0.00 0.60 0.00 95 1011.7
20260510050518 50 0 0.0 2.0 0.00 0.60 0.00 95 1012.0
20260510050035 50 243 0.0 2.0 0.00 0.60 0.00 95 1011.9
20260510045517 50 0 0.0 2.0 0.00 0.60 0.00 95 1011.8
20260510045018 50 0 0.0 2.0 0.00 0.60 0.00 95 1011.7
20260510044539 50 341 0.0 2.0 0.00 0.60 0.00 95 1011.7
20260510044015 50 0 0.0 2.0 0.00 0.60 0.00 95 1011.7
20260510043516 50 0 1.0 2.0 0.00 0.60 0.00 95 1011.7
20260510043044 50 321 0.0 2.0 0.00 0.60 0.00 95 1011.7
20260510042516 50 51 0.0 2.0 0.00 0.60 0.00 95 1011.6
20260510042015 50 282 1.0 2.0 0.00 0.60 0.00 95 1011.7
20260510041544 50 265 0.0 3.0 0.00 0.60 0.00 95 1011.8
20260510041017 50 325 1.0 3.0 0.00 0.60 0.00 95 1011.8
20260510040515 50 291 1.0 3.0 0.00 0.60 0.00 95 1011.7
20260510040035 50 0 0.0 2.0 0.00 0.60 0.00 95 1011.5
20260510035519 50 115 1.0 2.0 0.00 0.60 0.60 95 1011.4
20260510035019 51 26 0.0 2.0 0.00 0.60 0.60 95 1011.4
20260510034530 51 325 0.0 3.0 0.00 0.60 0.60 95 1011.4
20260510034017 51 41 1.0 3.0 0.00 0.60 0.60 95 1011.3
20260510033514 51 55 1.0 3.0 0.00 0.60 0.60 95 1011.3
20260510033035 51 57 1.0 3.0 0.00 0.60 0.60 95 1011.3
20260510032519 51 316 1.0 3.0 0.00 0.60 0.60 95 1011.3
20260510032016 51 59 1.0 3.0 0.00 0.60 0.60 95 1011.4
20260510031534 51 46 1.0 3.0 0.00 0.60 0.60 94 1011.4
20260510031017 51 0 0.0 3.0 0.00 0.60 0.60 94 1011.4
20260510030517 51 100 1.0 3.0 0.00 0.60 0.60 94 1011.3
20260510030035 51 51 1.0 2.0 0.00 0.60 0.60 95 1011.4
20260510025516 52 309 0.0 2.0 0.00 0.60 0.60 95 1011.5
20260510025017 52 9 1.0 2.0 0.00 0.60 0.60 95 1011.5
20260510024539 52 17 0.0 2.0 0.00 0.60 0.60 95 1011.6
20260510024020 52 0 0.0 2.0 0.00 0.60 0.60 94 1011.7
20260510023518 52 76 0.0 3.0 0.00 0.60 0.60 94 1011.6
20260510023031 52 51 0.0 3.0 0.00 0.60 0.60 94 1011.6
20260510022517 52 51 0.0 3.0 0.00 0.60 0.60 94 1011.7
20260510022016 52 0 0.0 3.0 0.00 0.60 0.60 94 1011.7
20260510021533 52 321 1.0 3.0 0.00 0.60 0.60 94 1011.7
20260510021015 52 0 0.0 3.0 0.00 0.60 0.60 94 1011.7
20260510020515 52 30 1.0 3.0 0.00 0.60 0.60 94 1011.6
20260510020035 52 22 1.0 3.0 0.00 0.60 0.60 94 1011.6
20260510015518 52 34 0.0 4.0 0.00 0.60 0.60 94 1011.6
20260510015017 52 0 1.0 4.0 0.00 0.60 0.60 94 1011.6
20260510014535 52 313 0.0 3.0 0.00 0.60 0.60 94 1011.5
20260510014017 52 229 0.0 4.0 0.00 0.60 0.60 94 1011.4
20260510013518 52 238 1.0 4.0 0.00 0.60 0.60 94 1011.4
20260510013034 52 162 0.0 3.0 0.00 0.60 0.60 94 1011.4
20260510012517 52 0 0.0 3.0 0.00 0.60 0.60 94 1011.2
20260510012017 53 205 1.0 3.0 0.00 0.60 0.60 94 1011.1
20260510011538 53 137 1.0 2.0 0.00 0.60 0.60 94 1011.2
20260510011018 53 196 1.0 2.0 0.00 0.60 0.60 94 1011.1
20260510010518 53 325 0.0 3.0 0.00 0.60 0.60 94 1011.0
20260510010046 52 93 0.0 3.0 0.00 0.60 0.60 94 1011.0
20260510005518 52 85 0.0 2.0 0.00 0.60 0.60 94 1011.0
20260510005020 52 0 0.0 3.0 0.00 0.60 0.60 94 1011.0
20260510004532 52 0 1.0 3.0 0.00 0.60 0.60 94 1011.0
20260510004020 52 76 0.0 3.0 0.00 0.60 0.60 94 1010.9
20260510003518 53 0 0.0 3.0 0.00 0.60 0.60 94 1011.0
20260510003036 52 298 1.0 3.0 0.00 0.60 0.60 94 1011.0
20260510002517 52 330 0.0 3.0 0.00 0.60 0.60 94 1010.9
20260510002016 52 72 0.0 3.0 0.00 0.60 0.60 94 1011.0
20260510001535 52 0 0.0 3.0 0.00 0.60 0.60 94 1011.0
20260510001016 53 131 1.0 3.0 0.00 0.60 0.60 94 1010.9
20260510000516 53 0 0.0 2.0 0.00 0.60 0.60 93 1010.8
20260510000038 53 108 0.0 2.0 0.00 0.60 0.60 93 1010.9
20260509235518 53 93 0.0 3.0 0.00 0.60 0.60 94 1010.9
20260509235018 53 119 1.0 3.0 0.00 0.60 0.60 93 1010.8
20260509234553 53 119 1.0 4.0 0.00 0.60 0.60 93 1010.8
20260509234016 54 80 0.0 4.0 0.01 0.60 0.60 93 1010.9
20260509233517 54 83 0.0 2.0 0.01 0.60 0.60 94 1010.8
20260509233036 54 157 0.0 3.0 0.01 0.60 0.60 94 1010.8
20260509232518 54 126 1.0 3.0 0.02 0.60 0.60 94 1010.9
20260509232016 54 83 1.0 3.0 0.05 0.60 0.60 93 1011.1
20260509231534 54 93 0.0 4.0 0.06 0.60 0.60 94 1011.2
20260509231015 54 0 0.0 4.0 0.07 0.60 0.60 93 1011.2
20260509230516 54 61 1.0 4.0 0.08 0.60 0.60 93 1011.2
20260509230032 54 265 1.0 7.0 0.09 0.60 0.60 93 1011.1
20260509225519 54 9 1.0 7.0 0.10 0.60 0.60 93 1011.0
20260509225016 54 140 2.0 7.0 0.12 0.60 0.60 93 1010.9
20260509224535 54 98 2.0 7.0 0.16 0.60 0.60 93 1011.1
20260509224018 54 76 2.0 7.0 0.16 0.58 0.58 93 1011.1
20260509223519 54 68 1.0 3.0 0.17 0.58 0.58 93 1011.2
20260509223034 54 9 1.0 4.0 0.17 0.58 0.58 93 1011.3
20260509222515 54 243 1.0 4.0 0.17 0.58 0.58 93 1011.3
20260509222017 53 128 1.0 4.0 0.14 0.55 0.55 93 1011.4
20260509221559 54 123 1.0 4.0 0.13 0.54 0.54 93 1011.4
20260509221018 54 0 1.0 4.0 0.12 0.52 0.52 93 1011.4
20260509220517 54 49 1.0 4.0 0.11 0.52 0.52 93 1011.5
20260509220034 54 45 1.0 3.0 0.10 0.51 0.51 93 1011.4
20260509215516 54 93 0.0 3.0 0.09 0.49 0.49 93 1011.7
20260509215016 54 119 0.0 4.0 0.08 0.48 0.48 93 1011.8
20260509214536 55 265 1.0 7.0 0.04 0.44 0.44 93 1011.8
20260509214018 55 344 1.0 7.0 0.04 0.43 0.43 93 1011.4
20260509213517 55 41 3.0 7.0 0.03 0.42 0.42 93 1011.1
20260509213032 55 325 1.0 3.0 0.03 0.42 0.42 93 1011.7
20260509212521 55 129 1.0 3.0 0.02 0.41 0.41 93 1011.8
20260509212016 55 0 0.0 3.0 0.03 0.41 0.41 93 1011.6
20260509211533 55 72 1.0 3.0 0.03 0.41 0.41 93 1011.5
20260509211015 55 51 1.0 3.0 0.03 0.41 0.41 93 1011.7
20260509210517 55 0 0.0 3.0 0.03 0.41 0.41 93 1011.8
20260509210034 55 0 1.0 2.0 0.03 0.41 0.41 92 1011.8
20260509205518 55 247 0.0 3.0 0.02 0.40 0.40 92 1011.9
20260509205015 55 59 1.0 3.0 0.02 0.40 0.40 92 1011.8
20260509204532 55 9 1.0 2.0 0.02 0.40 0.40 92 1011.9